Voltar ao catálogo

COSMOS 2251 DEB

AtivoLEO
NORAD 35453·DEBRIS·🇷🇺 Russia

Lançado Jun 16, 1993 de Plesetsk Cosmodrome

Loading…

Próximas Passagens (próximas 24 horas)

TLE

EnvelhecendoSource: Space-Track

Época: Sep 12, 2026, 06:38 UTC

1 35453U 93036AKX 26255.27686986  .00001119  00000-0  36146-3 0  9998
2 35453  74.0058 235.2360 0069681 301.3878  58.0472 14.38963708901529

Acompanhe COSMOS 2251 DEB em tempo real com AllMySat

Download on the App Store